Regional Weather Roundup
Issued by NWS

Home | Current Version | Previous Version | Text Only | Print | Product List | Glossary Off
Versions: 1 2 3 4 5 6 7 8 9 10 11 12 13 14 15 16 17 18 19 20 21 22 23 24 25 26 27 28 29 30 31 32 33 34 35 36 37 38 39 40 41 42 43 44 45 46 47 48 49 50

463
ASUS45 KCYS 210510
RWRWY

WYOMING REGIONAL WEATHER ROUNDUP
NATIONAL WEATHER SERVICE CHEYENNE WY
1100 PM MDT SUN MAY 20 2018

NOTE:  "FAIR" INDICATES FEW OR NO CLOUDS BELOW 12,000 FEET
WITH NO SIGNIFICANT WEATHER AND/OR OBSTRUCTIONS TO VISIBILITY.

WYZ001-210600-
YELLOWSTONE NATIONAL PARK

CITY           SKY/WX    TMP DP  RH WIND       PRES   REMARKS
LK YELLOWSTONE   N/A     45  36  70 CALM      30.16R
W YELLOWSTONE  NOT AVBL

$$
WYZ002>013-054>058-071-098>099-210600-
NORTHERN WYOMING

CITY           SKY/WX    TMP DP  RH WIND       PRES   REMARKS
JACKSON        LGT RAIN  53  43  68 CALM      30.07R
CODY           FAIR      53  44  71 CALM      29.98R
GREYBULL       FAIR      59  46  62 E6        29.92R
WORLAND        FAIR      56  48  74 S8        29.93R
SHERIDAN       FAIR      58  47  66 SE9G20    29.93F
BUFFALO        FAIR      52  45  77 S16       30.00F
GILLETTE       FAIR      50  38  63 S15G24    30.03F
NEWCASTLE      FAIR      50  32  50 E12       30.08F

$$
WYZ014>020-022>026-101>103-210600-
CENTRAL WYOMING

CITY           SKY/WX    TMP DP  RH WIND       PRES   REMARKS
BIG PINEY      MOCLDY    49  40  71 E3        30.08S
PINEDALE       MOCLDY    46  41  81 CALM      30.09S
DUBOIS         CLOUDY    46  41  81 SW5       30.09R
LANDER         FAIR      55  47  74 W9        29.98S
RIVERTON       FAIR      54  47  77 NW3       30.00F
CASPER         FAIR      47  45  93 N7        30.03R
DOUGLAS        FAIR      48  43  82 SE14      30.05S

$$
WYZ021-027>030-104>119-210600-
SOUTHERN WYOMING

CITY           SKY/WX    TMP DP  RH WIND       PRES   REMARKS
EVANSTON       FAIR      51  40  65 SE3       30.07S
KEMMERER       FAIR      46  36  66 N5        30.10S
FORT BRIDGER   FAIR      49  37  61 SE9       30.09F
ROCK SPRINGS   FAIR      51  37  58 S7        30.08F
DIXON          FAIR      49  44  82 NE7       30.15F
RAWLINS        FAIR      52  39  61 SW15G25   30.11S
SARATOGA       CLOUDY    48  41  76 SW13G23   30.15S
LARAMIE        FAIR      40  39  97 S9        30.12S WCI  34
CHEYENNE       FAIR      44  43  96 SW6       30.11F
TORRINGTON     FAIR      49  46  90 SE9       30.06F
PINE BLUFFS    FAIR      43  43 100 CALM      30.11F

$$




USA.gov is the U.S. government's official web portal to all federal, state and local government web resources and services.